Location: Asheville, NC
(35.6000°N, 82.5500°W)
Time: 14:53:57
(UTC-05:00)

RS-15 - Pass Details

Date: 03 January 2018
Orbit: 1886 x 2158 km, 64.8° (Epoch: 17 January)

Event Time Altitude Azimuth Distance (km) Brightness Sun altitude
Rises 18:45:43 0° 329° (NNW) 5,608 10.6 -15.1°
Reaches altitude 10° 18:50:09 10° 341° (NNW) 4,566 10.0 -16.0°
Maximum altitude 18:59:46 28° 37° (NE) 3,266 8.8 -17.8°
Enters shadow 19:03:30 23° 65° (ENE) 3,454 8.7 -18.6°
